Showing default

JACKAL-01, 59127

Orbit data source: Space-Track

JACKAL-01, 59127 is a payload satellite owned by True Anomaly (US) in SSO that was launched on Mon, 04 Mar 2024 UTC via an FALCON 9 launch vehicle from the Air Force Western Test Range (AFWTR). Payload-class satellites include a variety of spacecraft equipped with specific instruments for various scientific and technological missions. These include communications satellites like Starlink; space stations such as the ISS; scientific satellites like the Hubble; Earth observation satellites from companies like Planet Labs, Umbra, and HawkEye 360; GPS; miniature CubeSats for education and research; and military/defense satellites.

Loading next visibility...
Identifier
59127, 2024-043AF
Orbit
SSO
Country
Flag of USUS
Related business
Manufacturer
True Anomaly
Mission
Operational Commercial Technology
Bus & Motor
JACKAL, Unknown motor
Mass
275 kg wet, 275 kg dry
Launch date (UTC)
2024-03-04 (2 years ago)
Launch vehicle
FALCON 9
Launch site
Air Force Western Test Range (AFWTR)
Object type
Payload
Rocket body
Debris
Shape & HBR
Box + 2 Pan, 3.0 m
Radar Cross Section
1.240 m², Medium (>0.1 m² and < 1m²)

Expand to show TLE details & history
Last TLE update: 8 hours ago

TLE from 8 hours ago
0 JACKAL-01
1 59127U 24043AF  25346.93999190  .00022631  00000-0  61104-3 0  9995
2 59127  97.5336 120.7928 0008220 161.3436 198.8111 15.37743184 98867
Epoch: 2025-12-12T22:33Z
TLE epoch observation values (Epoch: 2025-12-12T22:33:35.300Z)
Latitude
-0.00003°
Longitude
60.52131°
Altitude
461.212 km
Speed
7.633 km/s
True Right ascension
08h 03m 10s
True Declination
0° 00' 00"
Sunlit
Object was in full shadow at epoch
Visualization orbit readout
Latitude
Unknown
Longitude
Unknown
Altitude
Unknown
Speed
Unknown
Apparent Right ascension
Unknown
Apparent Declination
Unknown
Sunlit
N/A
Visualization observer readout
Local Sidereal Time
05:26:19
Azimuth
Unknown
Elevation
Unknown
Doppler factor
Unknown
Orbital elements
Apogee altitude
455.345 km
Perigee altitude
444.12 km
Semi-major axis
6,827.869 km
Eccentricity
0.00082
Inclination
97.5336°
RAAN
120.7928°
Arg. of periapsis
161.3436°
True anomaly
198.78076°
Mean anomaly
198.8111°
Eccentric anomaly
198.79593°
Mean motion
3.84694 °/min
Orbital period
93.58 mins
BSTAR
0.00061104
Loading maneuver chart data...
Computing Atmospheric mass density...
Loading historical data...
Loading historical data...
Loading historical data...
Loading historical data...
Loading historical data...
Loading historical data...
Loading historical data...

Documentation

Showing up to 5 results
|